Location: ???
(35.5616°N, 139.7977°E)
Time: 19:21:46
(UTC+00:00)

Cosmos 2297 - Pass Details

Date: 17 November 2025
Orbit: 836 x 856 km, 71.0° (Epoch: 08 December)

Event Time Altitude Azimuth Distance (km) Brightness Sun altitude
Exits shadow 20:09:48 - 336° (NNW) 2,998 6.2 -14.2°
Reaches altitude 10° 20:11:13 10° 336° (NNW) 2,457 5.8 -13.9°
Maximum altitude 20:16:51 78° 251° (WSW) 858 3.6 -12.8°
Drops below altitude 10° 20:22:26 10° 165° (SSE) 2,437 6.5 -11.7°
Sets 20:24:51 0° 164° (SSE) 3,368 7.3 -11.2°
